TimeCDT,TemperatureF,Dew PointF,Humidity,Sea Level PressureIn,VisibilityMPH,Wind Direction,Wind SpeedMPH,Gust SpeedMPH,PrecipitationIn,Events,Conditions,WindDirDegrees,DateUTC
12:53 AM,46.0,37.9,73,30.28,10.0,NW,5.8,-,N/A,,Clear,310,2011-10-29 05:53:00
1:53 AM,45.0,37.9,76,30.28,10.0,NW,5.8,-,N/A,,Clear,310,2011-10-29 06:53:00
2:53 AM,44.6,37.4,76,30.31,10.0,NW,6.9,-,N/A,,Clear,320,2011-10-29 07:53:00
3:53 AM,43.0,36.0,76,30.28,10.0,NNW,3.5,-,N/A,,Clear,330,2011-10-29 08:53:00
4:53 AM,42.8,35.6,76,30.31,10.0,WNW,4.6,-,N/A,,Clear,300,2011-10-29 09:53:00
5:53 AM,41.0,35.1,79,30.30,10.0,WNW,5.8,-,N/A,,Clear,290,2011-10-29 10:53:00
6:53 AM,41.0,35.1,79,30.30,10.0,WNW,5.8,-,N/A,,Clear,290,2011-10-29 11:53:00
7:53 AM,41.0,35.1,79,30.31,10.0,WNW,4.6,-,N/A,,Clear,300,2011-10-29 12:53:00
8:53 AM,46.0,37.0,71,30.33,10.0,WNW,4.6,-,N/A,,Clear,300,2011-10-29 13:53:00
9:53 AM,55.4,39.2,54,30.36,10.0,Calm,Calm,-,N/A,,Clear,0,2011-10-29 14:53:00
10:53 AM,57.9,34.0,41,30.32,10.0,SE,3.5,-,N/A,,Clear,140,2011-10-29 15:53:00
11:53 AM,60.1,35.1,39,30.30,10.0,Variable,3.5,-,N/A,,Clear,0,2011-10-29 16:53:00
12:53 PM,62.1,35.1,37,30.27,10.0,Calm,Calm,-,N/A,,Clear,0,2011-10-29 17:53:00
1:53 PM,64.0,34.0,33,30.22,10.0,Variable,3.5,-,N/A,,Clear,0,2011-10-29 18:53:00
2:53 PM,64.0,34.0,33,30.16,10.0,SE,3.5,-,N/A,,Clear,130,2011-10-29 19:53:00
3:53 PM,66.9,33.1,28,30.14,10.0,Variable,5.8,-,N/A,,Partly Cloudy,0,2011-10-29 20:53:00
4:53 PM,66.0,32.0,28,30.11,10.0,ESE,3.5,-,N/A,,Partly Cloudy,120,2011-10-29 21:53:00
5:53 PM,64.9,32.0,29,30.10,10.0,East,3.5,-,N/A,,Partly Cloudy,100,2011-10-29 22:53:00
6:53 PM,60.8,32.0,34,30.12,10.0,SSE,5.8,-,N/A,,Partly Cloudy,150,2011-10-29 23:53:00
7:53 PM,55.9,33.1,42,30.10,10.0,SE,6.9,-,N/A,,Partly Cloudy,140,2011-10-30 00:53:00
8:53 PM,55.0,34.0,45,30.11,10.0,SSE,6.9,-,N/A,,Partly Cloudy,150,2011-10-30 01:53:00
9:53 PM,55.0,34.0,45,30.11,10.0,Calm,Calm,-,N/A,,Partly Cloudy,0,2011-10-30 02:53:00
10:53 PM,51.1,37.0,59,30.11,10.0,East,3.5,-,N/A,,Partly Cloudy,100,2011-10-30 03:53:00
11:53 PM,52.0,35.1,53,30.10,10.0,SSE,5.8,-,N/A,,Partly Cloudy,150,2011-10-30 04:53:00